Regional Weather Roundup
Issued by NWS

Home | Current Version | Previous Version | Graphics & Text | Print | Product List | Glossary On
Versions: 1 2 3 4 5 6 7 8 9 10 11 12 13 14 15 16 17 18 19 20 21 22 23 24 25 26 27 28 29 30 31 32 33 34 35 36 37 38 39 40 41 42 43 44 45 46 47 48 49 50
000
ASUS43 KLMK 292310
RWRKY
KENTUCKY REGIONAL WEATHER ROUNDUP
NATIONAL WEATHER SERVICE LOUISVILLE KY
700 PM EDT FRI JUL 29 2016

NOTE "FAIR" INDICATES FEW OR NO CLOUDS BELOW 12,000 FEET
WITH NO SIGNIFICANT WEATHER AND/OR OBSTRUCTIONS TO VISIBILITY.

KYZ001>023-026-027-061>063-070>075-300000-
WESTERN AND SOUTH CENTRAL KENTUCKY

CITY           SKY/WX    TMP DP  RH WIND       PRES   REMARKS
PADUCAH        PTSUNNY   83  73  72 N7        29.90S
HENDERSON      SUNNY     79  70  73 CALM      29.89S
OWENSBORO      CLOUDY    78  73  84 N3        29.91F
HOPKINSVILLE   PTSUNNY   77  70  77 VRB6      29.92F
BOWLING GREEN  CLOUDY    83  71  67 SW8       29.92R
GLASGOW        CLOUDY    82  72  71 SW6       29.93R
$$

KYZ024-025-028>034-038-045-046-053-300000-
NORTH CENTRAL KENTUCKY

CITY           SKY/WX    TMP DP  RH WIND       PRES   REMARKS
LOUISVILLE/SDF PTSUNNY   84  70  62 W12       29.89R
LOUISVILLE/LOU MOSUNNY   85  71  63 NW9       29.90R THUNDER HX  90
FORT KNOX      MOSUNNY   81  73  76 SW6       29.89S
$$

KYZ035>037-039>044-047>052-055>060-089>105-300000-
NORTHEAST KENTUCKY

CITY           SKY/WX    TMP DP  RH WIND       PRES   REMARKS
LEXINGTON      SUNNY     83  69  62 W7        29.92F
COVINGTON      PTSUNNY   84  71  65 SW6       29.89S
FRANKFORT      SUNNY     84  70  62 SW8       29.90S
$$

KYZ054-064>069-076>088-106>120-300000-
SOUTHEAST KENTUCKY

CITY           SKY/WX    TMP DP  RH WIND       PRES   REMARKS
JACKSON        CLOUDY    75  70  84 CALM      29.97S
LONDON         CLOUDY    76  67  73 S5        29.97S
SOMERSET       SUNNY     75  68  78 S3        29.97S
MIDDLESBORO    CLOUDY    74  72  93 CALM      29.99F
MONTICELLO     CLEAR    N/A N/A N/A W13       29.97S
$$





USA.gov is the U.S. government's official web portal to all federal, state and local government web resources and services.